AT&T T-16

Last updated on Dec. 11, 2019, 4:28 a.m. UTC

1 44333U 19034A   19344.45008274 -.00000095  00000-0  00000+0 0  9999
2 44333   0.0168   5.4889 0000137 202.1780 292.4186  1.00269906  1780
UTC
Height (km)
Latitude
Longitude
Inclination
Orbital Period
UTC large
Height (km)
Speed (km/s)
/
Latitude / Longitude
Inclination (degrees)
Orbital Period (minutes)
Azimuth
Elevation
Range (km)
Doppler Factor
iOS Compass Heading
iOS Angle

Next 30 passes for location: Hong Kong

Rise time Rise Azimuth (degrees) Set time Set Azimuth (degrees) Duration Max altitude (degrees)

No matching passes for this satellites